KJ5EHN Weather Reports


time (UTC)temp
F
wind
direction
speed
knots
gust
knots
rain 1hr
in
rain 24hr
in
rain mn
in
humidity
%
barometer
mb
20260509090907 68 44 1.7 3.5 0.00 0.00 0.00 93 1008.2
20260509090404 69 286 3.5 6.1 0.00 0.00 0.00 92 1008.5
20260509085901 69 195 1.7 5.2 0.00 0.00 0.00 92 1008.8
20260509085358 69 47 0.9 1.7 0.00 0.00 0.00 92 1009.0
20260509084854 69 77 0.9 2.6 0.00 0.00 0.00 92 1009.2
20260509084351 69 181 2.6 2.6 0.00 0.00 0.00 92 1009.1
20260509083849 68 46 1.7 5.2 0.00 0.00 0.00 92 1008.8
20260509083346 68 27 0.9 1.7 0.00 0.00 0.00 92 1008.6
20260509082842 68 97 0.9 1.7 0.00 0.00 0.00 92 1008.6
20260509082339 68 34 2.6 2.6 0.00 0.00 0.00 92 1008.5
20260509081837 68 39 0.9 2.6 0.00 0.00 0.00 92 1008.5
20260509081333 68 3 2.6 5.2 0.00 0.00 0.00 92 1008.8
20260509080832 68 15 1.7 3.5 0.00 0.00 0.00 92 1008.9
20260509080329 68 358 0.0 2.6 0.00 0.00 0.00 92 1009.2
20260509075827 68 23 0.9 1.7 0.00 0.00 0.00 92 1009.3
20260509075324 68 33 0.9 1.7 0.00 0.00 0.00 92 1009.7
20260509074821 68 43 0.9 3.5 0.00 0.00 0.00 91 1009.8
20260509074319 68 48 0.9 1.7 0.00 0.00 0.00 91 1009.8
20260509073815 68 71 1.7 2.6 0.00 0.00 0.00 91 1009.8
20260509073311 68 28 0.9 1.7 0.00 0.00 0.00 91 1009.4
20260509072808 68 112 2.6 3.5 0.00 0.00 0.00 91 1009.6
20260509072306 68 36 0.9 2.6 0.00 0.00 0.00 90 1010.0
20260509071801 68 28 0.9 1.7 0.00 0.00 0.00 90 1010.1
20260509071258 68 71 0.0 0.9 0.00 0.00 0.00 90 1010.2
20260509070755 68 61 0.9 1.7 0.00 0.00 0.00 90 1010.2
20260509070252 68 17 0.9 1.7 0.00 0.00 0.00 90 1010.2
20260509065748 68 22 0.0 1.7 0.00 0.00 0.00 90 1010.4
20260509065245 69 359 0.0 0.9 0.00 0.00 0.00 90 1010.4
20260509064741 69 71 0.0 1.7 0.00 0.00 0.00 89 1010.7
20260509064238 69 80 0.0 0.9 0.00 0.00 0.00 90 1010.7
20260509063736 69 79 0.0 0.9 0.00 0.00 0.00 89 1010.9
20260509063232 69 91 0.9 2.6 0.00 0.00 0.00 89 1010.9
20260509062729 69 141 0.9 2.6 0.00 0.00 0.00 89 1010.8
20260509062226 69 107 0.9 1.7 0.00 0.00 0.00 89 1010.9
20260509061723 68 211 0.9 2.6 0.00 0.00 0.00 90 1010.8
20260509061221 68 238 1.7 2.6 0.00 0.00 0.00 91 1011.1
20260509060718 68 213 0.9 1.7 0.00 0.00 0.00 91 1010.7
20260509060214 68 86 0.0 0.9 0.00 0.00 0.00 91 1010.0
20260509055710 67 86 0.0 1.7 0.00 0.00 0.00 91 1009.5
20260509055206 67 86 0.9 2.6 0.00 0.00 0.00 92 1009.3
20260509054703 67 33 0.9 3.5 0.00 0.00 0.00 91 1009.3
20260509054200 68 135 2.6 5.2 0.00 0.00 0.00 91 1009.4
20260509053659 68 188 1.7 3.5 0.00 0.00 0.00 90 1009.6
20260509053155 68 275 0.0 1.7 0.00 0.00 0.00 89 1009.9
20260509052653 68 272 1.7 2.6 0.00 0.00 0.00 89 1009.7
20260509052150 69 237 0.9 1.7 0.00 0.00 0.00 89 1009.7
20260509051648 69 236 0.9 2.6 0.00 0.00 0.00 88 1010.3
20260509051145 68 257 0.9 1.7 0.00 0.00 0.00 88 1010.3
20260509050642 68 257 0.9 2.6 0.00 0.00 0.00 88 1010.0
20260509050139 68 269 0.9 0.9 0.00 0.00 0.00 88 1010.4
20260509045636 68 234 1.7 2.6 0.00 0.25 0.25 88 1010.3
20260509045133 68 266 0.9 0.9 0.00 0.25 0.25 88 1010.3
20260509044630 68 291 0.0 1.7 0.00 0.25 0.25 88 1010.3
20260509044128 68 265 0.9 1.7 0.00 0.25 0.25 88 1010.7
20260509043624 68 311 1.7 3.5 0.00 0.25 0.25 87 1010.4
20260509043119 69 241 1.7 3.5 0.00 0.25 0.25 87 1010.0
20260509042616 68 247 1.7 2.6 0.00 0.25 0.25 87 1010.3
20260509042112 68 240 0.9 1.7 0.00 0.25 0.25 86 1010.2
20260509041609 69 223 0.0 0.9 0.00 0.25 0.25 86 1010.1
20260509041107 69 223 0.0 0.0 0.00 0.25 0.25 85 1010.0
20260509040605 69 154 0.9 0.9 0.00 0.25 0.25 85 1009.8
20260509040101 69 234 0.0 0.0 0.00 0.25 0.25 85 1009.9
20260509035558 69 234 0.0 3.5 0.00 0.25 0.25 84 1009.7
20260509035055 69 186 0.0 2.6 0.00 0.25 0.25 84 1009.8
20260509034553 69 266 0.9 1.7 0.00 0.25 0.25 84 1010.0
20260509034050 70 226 0.9 1.7 0.00 0.25 0.25 83 1009.8
20260509033547 70 93 2.6 2.6 0.00 0.25 0.25 83 1009.7
20260509033044 70 203 1.7 1.7 0.00 0.25 0.25 83 1009.7
20260509032541 70 280 0.9 3.5 0.00 0.25 0.25 83 1009.7
20260509032038 70 206 0.9 1.7 0.00 0.25 0.25 82 1009.6
20260509031536 70 119 0.9 1.7 0.00 0.25 0.25 82 1009.2
20260509031033 70 357 0.9 2.6 0.00 0.25 0.25 82 1008.9
20260509030531 70 152 0.9 3.5 0.00 0.25 0.25 82 1009.1
20260509030027 70 199 0.0 2.6 0.00 0.25 0.25 82 1009.3
20260509025523 70 225 0.9 1.7 0.00 0.25 0.25 81 1009.7
20260509025019 71 132 0.0 0.0 0.00 0.25 0.25 81 1010.0
20260509024515 71 132 0.9 0.9 0.00 0.25 0.25 80 1010.3
20260509024012 71 132 0.0 0.9 0.00 0.25 0.25 79 1010.5
20260509023509 71 132 0.0 0.9 0.00 0.25 0.25 79 1010.3
20260509023006 71 132 0.0 0.0 0.00 0.25 0.25 80 1010.1
20260509022502 71 6 0.0 0.0 0.00 0.25 0.25 80 1009.8
20260509022000 71 6 0.0 0.0 0.00 0.25 0.25 79 1009.9
20260509021457 71 347 0.0 0.0 0.00 0.25 0.25 79 1009.5
20260509020954 71 73 0.0 0.9 0.00 0.25 0.25 79 1009.3
20260509020453 71 73 0.0 0.9 0.00 0.25 0.25 79 1009.4
20260509015949 71 49 0.0 0.9 0.00 0.25 0.25 79 1009.3
20260509015448 71 51 0.0 0.9 0.00 0.25 0.25 79 1009.2
20260509014944 71 225 0.0 0.9 0.00 0.25 0.25 78 1008.8
20260509014441 71 24 0.0 0.9 0.00 0.25 0.25 78 1009.0
20260509013937 72 356 0.0 3.5 0.00 0.25 0.25 77 1008.6
20260509013434 72 175 2.6 3.5 0.00 0.25 0.25 77 1008.6
20260509012930 72 322 0.0 2.6 0.00 0.25 0.25 76 1008.8
20260509012427 72 140 0.9 1.7 0.00 0.25 0.25 76 1008.5
20260509011924 73 222 1.7 3.5 0.00 0.25 0.25 75 1008.4
20260509011421 73 261 0.9 2.6 0.00 0.25 0.25 75 1008.2
20260509010919 73 308 0.0 0.9 0.00 0.25 0.25 74 1008.3
20260509010416 73 328 2.6 3.5 0.00 0.25 0.25 74 1008.4
20260509005913 73 179 0.9 2.6 0.00 0.25 0.25 74 1008.4
20260509005411 74 36 0.9 1.7 0.00 0.25 0.25 74 1008.6
20260509004911 74 213 1.7 7.0 0.00 0.25 0.25 74 1008.5
20260509004408 74 241 1.7 7.0 0.00 0.25 0.25 74 1008.6
20260509003905 74 314 0.9 3.5 0.00 0.25 0.25 73 1008.6
20260509003403 74 342 0.9 1.7 0.00 0.25 0.25 72 1008.5
20260509002900 74 305 1.7 2.6 0.00 0.25 0.25 72 1008.4
20260509002358 74 6 1.7 5.2 0.00 0.25 0.25 73 1008.2
20260509001855 75 206 2.6 6.1 0.00 0.25 0.25 72 1008.1
20260509001351 75 280 1.7 5.2 0.00 0.25 0.25 72 1008.2
20260509000848 76 326 1.7 7.0 0.00 0.25 0.25 71 1008.2
20260509000348 76 56 0.9 7.0 0.00 0.25 0.25 71 1007.9
20260508235842 76 76 0.0 5.2 0.00 0.25 0.25 70 1008.0
20260508235339 77 214 3.5 6.1 0.00 0.25 0.25 68 1007.9
20260508234836 77 329 0.9 5.2 0.00 0.25 0.25 68 1007.9
20260508234332 77 104 3.5 5.2 0.00 0.25 0.25 68 1008.0
20260508233831 77 314 1.7 3.5 0.00 0.25 0.25 68 1008.1
20260508233330 77 15 1.7 7.0 0.00 0.25 0.25 68 1008.2
20260508232827 78 51 1.7 6.1 0.00 0.25 0.25 67 1008.2
20260508232323 77 103 2.6 5.2 0.00 0.25 0.25 68 1008.2
20260508231822 78 50 0.9 2.6 0.00 0.25 0.25 66 1008.1
20260508231317 78 7 2.6 6.1 0.00 0.25 0.25 65 1008.4
20260508230814 79 166 1.7 5.2 0.00 0.25 0.25 63 1008.4
20260508230311 80 289 1.7 3.5 0.00 0.25 0.25 62 1008.4
20260508225809 80 241 0.9 5.2 0.00 0.25 0.25 61 1008.3
20260508225306 79 6 0.0 2.6 0.00 0.25 0.25 63 1008.2
20260508224803 80 121 1.7 5.2 0.00 0.25 0.25 60 1008.4
20260508224300 81 63 0.9 3.5 0.00 0.25 0.25 60 1008.4
20260508223757 80 80 1.7 3.5 0.00 0.25 0.25 60 1008.5
20260508223255 79 15 0.9 1.7 0.00 0.25 0.25 63 1008.3
20260508222752 78 163 0.9 5.2 0.00 0.25 0.25 63 1008.2
20260508222249 79 313 1.7 3.5 0.00 0.25 0.25 63 1008.3
20260508221746 78 81 0.9 3.5 0.00 0.25 0.25 63 1008.3
20260508221241 79 338 1.7 3.5 0.00 0.25 0.25 63 1008.3
20260508220737 79 55 0.9 1.7 0.00 0.25 0.25 63 1008.4
20260508220234 79 71 1.7 3.5 0.00 0.25 0.25 63 1008.1
20260508215731 79 325 1.7 6.1 0.00 0.25 0.25 63 1008.2
20260508215227 79 135 2.6 3.5 0.00 0.25 0.25 63 1008.2
20260508214725 79 153 2.6 5.2 0.00 0.25 0.25 64 1008.5
20260508214222 78 77 0.9 3.5 0.00 0.25 0.25 65 1008.3
20260508213718 79 25 1.7 3.5 0.00 0.25 0.25 63 1008.4
20260508213215 78 259 2.6 7.0 0.00 0.25 0.25 64 1008.6
20260508212711 78 230 1.7 6.1 0.00 0.25 0.25 64 1008.7
20260508212208 79 147 1.7 3.5 0.00 0.25 0.25 62 1008.8
20260508211703 79 39 2.6 3.5 0.00 0.25 0.25 63 1008.9
20260508211159 79 300 1.7 3.5 0.00 0.25 0.25 62 1009.0
20260508210657 78 221 0.9 7.0 0.00 0.25 0.25 63 1009.1
20260508210154 79 342 2.6 5.2 0.00 0.25 0.25 61 1009.1
20260508205651 80 274 2.6 3.5 0.00 0.25 0.25 60 1009.3
20260508205147 81 226 1.7 5.2 0.00 0.25 0.25 59 1009.5
20260508204643 81 261 1.7 8.7 0.00 0.25 0.25 58 1009.6
20260508204140 80 279 1.7 7.0 0.00 0.25 0.25 58 1009.6
20260508203636 80 52 2.6 6.1 0.00 0.25 0.25 57 1009.7
20260508203132 80 309 1.7 6.1 0.00 0.25 0.25 59 1009.6
20260508202629 79 188 3.5 6.1 0.00 0.25 0.25 57 1010.0
20260508202126 79 329 2.6 5.2 0.00 0.25 0.25 58 1009.9
20260508201622 78 209 2.6 7.0 0.00 0.25 0.25 59 1010.1
20260508201119 79 63 2.6 7.0 0.00 0.25 0.25 59 1010.2
20260508200616 79 302 0.9 3.5 0.00 0.25 0.25 59 1010.5
20260508200112 80 282 3.5 5.2 0.00 0.25 0.25 59 1010.4
20260508195609 80 322 1.7 7.8 0.00 0.25 0.25 59 1010.3
20260508195105 79 110 2.6 5.2 0.00 0.25 0.25 61 1010.4
20260508194602 78 298 0.9 2.6 0.00 0.25 0.25 60 1010.7
20260508194059 78 189 0.9 3.5 0.00 0.25 0.25 59 1010.8
20260508193555 78 196 0.9 1.7 0.00 0.25 0.25 58 1010.9
20260508193052 78 327 0.0 6.1 0.00 0.25 0.25 58 1010.8
20260508192549 78 120 1.7 2.6 0.00 0.25 0.25 59 1010.8
20260508192046 79 96 1.7 2.6 0.00 0.25 0.25 59 1010.7
20260508191543 78 114 0.0 2.6 0.00 0.25 0.25 60 1010.6
20260508191039 77 279 0.9 2.6 0.00 0.25 0.25 62 1010.7
20260508190537 79 228 2.6 5.2 0.00 0.25 0.25 59 1010.9
20260508190033 79 333 0.9 2.6 0.00 0.25 0.25 59 1010.8
20260508185531 77 276 1.7 1.7 0.00 0.25 0.25 62 1010.8
20260508185028 77 93 1.7 1.7 0.00 0.25 0.25 62 1011.1
20260508184525 78 113 2.6 6.1 0.00 0.25 0.25 60 1011.1
20260508184022 78 250 0.9 1.7 0.00 0.25 0.25 63 1011.0
20260508183519 78 103 3.5 5.2 0.00 0.25 0.25 61 1011.2
20260508183014 78 75 0.9 2.6 0.00 0.25 0.25 61 1011.3
20260508182511 79 60 1.7 2.6 0.00 0.25 0.25 62 1011.3
20260508182007 78 130 0.9 3.5 0.00 0.25 0.25 64 1011.4
20260508181503 77 277 1.7 2.6 0.00 0.25 0.25 65 1011.5
20260508181001 76 273 1.7 3.5 0.00 0.25 0.25 62 1011.5
20260508180457 76 288 0.0 2.6 0.00 0.25 0.25 65 1011.6
20260508175953 75 56 0.0 3.5 0.00 0.25 0.25 65 1011.7
20260508175450 76 9 1.7 2.6 0.00 0.25 0.25 62 1011.9
20260508174948 76 201 0.9 3.5 0.00 0.25 0.25 65 1012.1
20260508174445 76 250 0.9 1.7 0.00 0.25 0.25 63 1012.4
20260508173942 74 297 0.9 6.1 0.00 0.25 0.25 66 1012.5
20260508173439 74 10 0.9 7.0 0.00 0.25 0.25 64 1012.7
20260508172934 73 155 0.0 3.5 0.00 0.25 0.25 66 1012.8
20260508172432 74 111 2.6 6.1 0.00 0.25 0.25 64 1012.8
20260508171928 74 52 0.9 3.5 0.00 0.25 0.25 66 1013.0
20260508171425 74 243 1.7 2.6 0.00 0.25 0.25 66 1013.3
20260508170922 73 331 4.3 8.7 0.00 0.25 0.25 65 1013.3
20260508170419 73 103 1.7 6.1 0.00 0.25 0.25 66 1013.4
20260508165915 73 48 0.9 3.5 0.00 0.25 0.25 68 1013.3
20260508165414 71 40 1.7 5.2 0.00 0.25 0.25 71 1013.7
20260508164909 73 43 1.7 3.5 0.00 0.25 0.25 68 1013.6
20260508164407 71 308 0.9 5.2 0.00 0.25 0.25 70 1013.8
20260508163904 71 216 1.7 3.5 0.00 0.25 0.25 70 1013.8
20260508163402 70 346 0.9 2.6 0.00 0.25 0.25 74 1013.9
20260508162856 69 308 1.7 1.7 0.00 0.25 0.25 74 1013.8
20260508162354 71 69 1.7 3.5 0.00 0.25 0.25 72 1013.8
20260508161851 71 231 0.9 3.5 0.00 0.25 0.25 72 1013.8
20260508161348 70 219 2.6 3.5 0.00 0.25 0.25 72 1013.8
20260508160845 69 272 1.7 2.6 0.00 0.25 0.25 75 1013.8
20260508160344 70 236 0.9 3.5 0.00 0.25 0.25 75 1013.8
20260508155840 69 342 0.0 2.6 0.00 0.25 0.25 76 1013.9
20260508155338 69 13 0.9 3.5 0.00 0.25 0.25 73 1013.9
20260508154834 69 299 0.9 1.7 0.00 0.25 0.25 75 1014.0
20260508154332 69 253 0.9 3.5 0.00 0.25 0.25 73 1013.8
20260508153828 68 12 0.9 5.2 0.00 0.25 0.25 77 1013.7
20260508153326 68 212 1.7 3.5 0.00 0.25 0.25 78 1013.9
20260508152821 69 309 0.9 2.6 0.00 0.25 0.25 78 1014.2
20260508152318 67 142 0.9 2.6 0.00 0.25 0.25 82 1014.0
20260508151814 67 49 0.9 0.9 0.00 0.25 0.25 84 1014.3
20260508151311 65 86 0.0 0.9 0.00 0.25 0.25 87 1014.5
20260508150808 64 90 0.9 2.6 0.00 0.25 0.25 86 1014.6
20260508150305 65 63 0.9 2.6 0.00 0.25 0.25 85 1014.4
20260508145802 66 330 0.9 2.6 0.00 0.25 0.25 86 1014.7
20260508145257 64 192 0.9 0.9 0.00 0.25 0.25 88 1014.4
20260508144754 64 189 0.9 1.7 0.00 0.25 0.25 87 1014.4
20260508144252 64 251 0.9 3.5 0.00 0.25 0.25 87 1014.6
20260508143749 65 17 0.9 3.5 0.00 0.25 0.25 86 1014.2
20260508143246 64 295 0.9 2.6 0.00 0.25 0.25 90 1014.2
20260508142742 64 63 0.9 1.7 0.00 0.25 0.25 90 1014.1
20260508142239 64 237 0.9 3.5 0.00 0.25 0.25 89 1014.3
20260508141736 65 190 1.7 2.6 0.00 0.25 0.25 91 1014.3
20260508141233 64 53 0.0 0.9 0.00 0.25 0.25 92 1014.6
20260508140730 62 127 0.0 0.0 0.00 0.25 0.25 94 1014.6
20260508140227 61 8 0.0 0.0 0.00 0.25 0.25 96 1014.7
20260508135723 61 354 0.0 0.0 0.00 0.25 0.25 96 1014.7
20260508135219 61 308 0.0 0.9 0.07 0.25 0.25 96 1015.0
20260508134715 60 308 0.0 0.0 0.50 0.25 0.25 96 1014.8
20260508134213 60 306 0.0 0.9 0.47 0.24 0.24 95 1014.9
20260508133709 60 353 0.0 0.9 0.00 0.16 0.16 95 1014.9
20260508133207 60 269 0.9 0.9 0.00 0.16 0.16 96 1014.7
20260508132705 60 322 0.0 1.7 0.19 0.16 0.16 95 1014.5
20260508132202 59 86 0.0 1.7 0.66 0.16 0.16 95 1014.3
20260508131657 60 161 0.9 1.7 0.42 0.12 0.12 94 1014.4
20260508131154 59 266 0.0 0.9 0.00 0.05 0.05 92 1015.1
20260508130650 59 174 0.0 0.9 0.00 0.05 0.05 93 1014.8
20260508130148 59 301 0.0 1.7 0.00 0.05 0.05 94 1014.6
20260508125643 59 335 0.0 0.9 0.00 0.05 0.05 94 1014.8
20260508125140 59 317 0.0 0.9 0.07 0.05 0.05 94 1014.8
20260508124638 59 279 0.0 0.9 0.07 0.05 0.05 94 1014.4
20260508124135 59 73 0.9 2.6 0.00 0.04 0.04 93 1014.4
20260508123633 59 138 0.9 1.7 0.05 0.04 0.04 93 1014.9
20260508123131 59 330 0.9 1.7 0.07 0.03 0.03 93 1015.2
20260508122626 59 340 0.0 1.7 0.19 0.03 0.03 92 1014.9
20260508122124 60 299 1.7 2.6 0.07 0.01 0.01 91 1015.7
20260508121622 60 177 0.0 0.9 0.00 0.00 0.00 91 1015.0
20260508121120 60 328 0.0 2.6 0.00 0.00 0.00 91 1015.0
20260508120617 60 270 0.9 0.9 0.00 0.00 0.00 91 1014.8
20260508120115 60 133 0.9 0.9 0.00 0.00 0.00 91 1014.3
20260508115612 60 295 0.9 1.7 0.00 0.00 0.00 91 1014.9
20260508115109 60 136 0.9 1.7 0.00 0.00 0.00 91 1015.0
20260508114606 60 280 0.9 1.7 0.00 0.00 0.00 92 1014.7
20260508114102 60 202 0.9 0.9 0.00 0.00 0.00 92 1014.7
20260508113559 60 230 0.0 0.0 0.00 0.00 0.00 92 1014.6
20260508113058 60 354 0.0 1.7 0.00 0.00 0.00 92 1014.4
20260508112553 59 295 0.0 0.9 0.00 0.00 0.00 92 1014.0
20260508112050 59 241 0.9 1.7 0.00 0.00 0.00 92 1013.9
20260508111547 59 206 1.7 2.6 0.00 0.00 0.00 93 1014.3
20260508111044 59 282 0.9 1.7 0.00 0.00 0.00 93 1014.6
20260508110543 59 258 0.0 1.7 0.00 0.00 0.00 92 1014.4
20260508110039 59 149 0.9 1.7 0.00 0.00 0.00 92 1014.4
20260508105539 59 267 0.9 1.7 0.00 0.00 0.00 91 1014.3
20260508105036 60 53 0.0 1.7 0.00 0.00 0.00 91 1013.9
20260508104534 60 19 0.0 2.6 0.00 0.00 0.00 90 1014.0
20260508104030 60 301 1.7 1.7 0.00 0.00 0.00 91 1015.0
20260508103527 59 257 1.7 2.6 0.00 0.00 0.00 92 1014.4
20260508103025 59 146 0.0 0.9 0.00 0.00 0.00 92 1014.1
20260508102523 59 145 0.0 0.0 0.00 0.00 0.00 92 1013.8
20260508102020 58 146 0.0 0.9 0.00 0.00 0.00 92 1013.9
20260508101517 58 145 0.0 0.0 0.00 0.00 0.00 92 1014.0
20260508101014 58 145 0.0 0.0 0.00 0.00 0.00 92 1013.6
20260508100513 58 145 0.0 0.0 0.00 0.00 0.00 92 1013.5
20260508100009 58 145 0.0 0.0 0.00 0.00 0.00 91 1013.7
20260508095506 58 145 0.0 0.9 0.00 0.00 0.00 91 1013.3
20260508095003 58 146 0.0 0.9 0.00 0.00 0.00 91 1013.6
20260508094500 58 146 0.0 0.9 0.00 0.00 0.00 90 1013.9
20260508093956 58 146 0.0 0.0 0.00 0.00 0.00 90 1013.8
20260508093454 58 146 0.0 0.9 0.00 0.00 0.00 90 1014.0
20260508092952 59 33 0.0 1.7 0.00 0.00 0.00 88 1013.9
20260508092449 59 33 0.0 0.9 0.00 0.00 0.00 87 1013.8
20260508091948 59 252 0.0 0.9 0.00 0.00 0.00 87 1013.8
20260508091444 60 252 0.0 0.0 0.00 0.00 0.00 86 1014.1